GORIZONT 19 [-]

Last updated on Oct. 24, 2020, 5:55 a.m. UTC

1 20263U 89081A   20297.59039380 -.00000366  00000-0  00000+0 0  9991
2 20263  14.2411 349.4108 0002763 295.2164  66.5809  1.00319742113819
UTC
Height (km)
Latitude
Longitude
Inclination
Orbital Period
UTC large
Height (km)
Speed (km/s)
/
Latitude / Longitude
Inclination (degrees)
Orbital Period (minutes)
Azimuth
Elevation
Range (km)
Doppler Factor
iOS Compass Heading
iOS Angle

Next 30 passes for location: Hong Kong

Rise time Rise Azimuth (degrees) Set time Set Azimuth (degrees) Duration Max altitude (degrees)

No matching passes for this satellites